{"data":{"norad_id":67885,"intl_designator":"2026-035G","name":"STARLINK-36826","alt_names":[],"object_type":"PAYLOAD","status":"ACTIVE","operator":null,"country":"US","launch_date":"2026-02-21","launch_site_code":"AFWTR","launch_vehicle":null,"mission":null,"orbit_class":"UNKNOWN","rcs_meters":null,"size_class":null,"mass_kg":null,"dimensions":null,"purposes":["comms"],"wikipedia_slug":null,"has_3d_model":false,"image_url":null,"decayed_at":null,"tle_current":{"epoch":"2026-09-19T13:01:35.955264Z","epoch_age_seconds":146005,"freshness":"FRESH","line1":"1 67885U 26035G   26262.54277726  .00009860  00000+0  30738-3 0  9994","line2":"2 67885  97.2844 194.3646 0002216  88.5328 271.6168 15.33439469 33697","mean_motion":15.33439469,"eccentricity":0.0002216,"inclination_deg":97.2844,"raan_deg":194.3646,"arg_perigee_deg":88.5328,"mean_anomaly_deg":271.6168,"bstar":0.00030738,"rev_number":3369,"period_min":93.906543369401,"perigee_km":464.0430677188,"apogee_km":467.07619406561,"semimajor_km":6843.6966308922,"source":"CELESTRAK","updated_at":"2026-09-20T09:00:43.696418Z"}}}